DECAYED

NOAA 16 DEB, 42336 (Decayed)

Orbit data source: Space-Track

NOAA 16 DEB, 42336 was space debris in LEO originally from a launch on Thu, 21 Sep 2000 UTC launched from the Air Force Western Test Range (AFWTR). Debris objects in space refer to the collection of defunct objects orbiting the Earth. Examples of debris include non-operational satellites, rocket bodies, and fragments generated from explosions, collisions, or faulty payload assembly.

Not visible in the next 10 days
NOAA 16 DEB details
Identifier
42336, 2000-055QC
Orbit
Decayed
Last TLE update3 months ago
Origin
Flag of USNOAA (US)
ManufacturerUnknown
MissionDecayed spacecraft
Bus & MotorUnknown
MassUnknown
Launch date (UTC)
2000-09-21 (24 years ago)
Launch vehicleUnknown
Launch site
Air Force Western Test Range (AFWTR)
Object type
Payload
Rocket body
Debris
Shape & HBRUnknown
Radar Cross SectionSmall (<0.1 m²)

Expand to show TLE details & history

TLE from 3 months ago
0 NOAA 16 DEB
1 42336U 00055QC  24254.49431937  .20037488  00000-0  84361-1 0  9990
2 42336  98.8004  80.8964 0018276 299.5154  60.4285 15.79457418441019
Epoch: 2024-09-10T11:51Z
Definitive object data (Epoch: 2024-09-10T11:51:49.193Z)
Latitude-0.00012°
Longitude-87.06719°
Altitude329.066 km
Speed7.714 km/s
True Right ascension05h 23m 35s
True Declination0° 00' 00"
Sunlit
Object was in daylight at TLE epoch
Visualization observer readout
Observer readout values are unavailable because the object's trajectory could not be propagated. This is usually caused when the trajectory data is faulty or the object's orbit has decayed.
Visualization observer readout
Observer readout values are unavailable because the object's trajectory could not be propagated. This is usually caused when the trajectory data is faulty or the object's orbit has decayed.
Orbital elements
Apogee altitude341.189 km
Perigee altitude316.673 km
Semi-major axis6,707.068 km
Eccentricity0.0018276
Inclination98.8004°
RAAN80.8964°
Arg. of periapsis299.5154°
True anomaly60.61085°
Mean anomaly60.4285°
Eccentric anomaly60.51966°
Mean motion3.95134 °/min
BSTAR0.084361
Orbital period91.11 mins
Loading maneuver chart data...
Loading historical data...
Loading historical data...
Loading historical data...
Loading historical data...
Loading historical data...
Loading historical data...
Loading historical data...

NOAA 16 DEB Visibility forecast

Observer location: undefined°, undefined

This satellite is decayed
Span
Click to sort rows by Start time (UTC) header in descending order
Start Az.
Max El. time (UTC)
Max El. Az.
Max El.
End time (UTC)
End Az.
|